Date String (YYYY-MM-DD hh:mm:ss) UTC,Instrument flags,absolute air pressure of the measurement (hPa),sample flow rate (lpm),inlet stack bypass flow (lpm),air temperature of the measurement (°C),ambient temperature measured by the external sensor (°C),aerosol sample conditioner tube jacket temperature (°C),OPC LED temperature (°C),internal box temperature (°C),relative humidity of the measurement (%),span deviation,mass concentration of particles derived from Lorenz-Mie calculation of OPC scattering (μg/m³),mass concentration of particles derived from Lorenz-Mie calculation of OPC scattering (μg/m³),mass concentration of particles derived from Lorenz-Mie calculation of OPC scattering (μg/m³)
DateTimeUTC,F1_M11,P_M11,Q1_M11,Q2_M11,T1_M11,T2_M11,T3_M11,T4_M11,T5_M11,U1_M11,ZSPAN_M11,X0_M11,X2_M11,X1_M11
2023-07-22 13:00:00,SystemResetWarning,0835.8,5.00,000.00,029.7,028.1,000.0,038.3,031.2,21.0,0000.0,0007.79,0003.89,0003.48
2023-07-22 13:01:00,SystemResetWarning,0835.8,4.99,000.00,029.7,028.2,000.0,038.3,031.2,21.5,0000.0,0007.65,0003.85,0003.48
2023-07-22 13:02:00,SystemResetWarning,0835.8,4.99,000.00,029.7,028.3,000.0,038.3,031.3,21.2,0000.0,0007.62,0003.86,0003.48
2023-07-22 13:03:00,SystemResetWarning,0835.9,5.00,000.00,029.8,028.3,000.0,038.3,031.3,22.2,0000.0,0007.45,0003.87,0003.47
2023-07-22 13:04:00,SystemResetWarning,0835.9,5.01,000.00,029.8,028.4,000.0,038.3,031.4,23.7,0000.0,0006.46,0003.89,0003.47
2023-07-22 13:05:00,SystemResetWarning,0835.9,5.01,000.00,029.8,028.4,000.0,038.3,031.4,24.0,0000.0,0006.23,0003.86,0003.46
2023-07-22 13:06:00,SystemResetWarning,0835.9,5.01,000.00,029.8,028.5,000.0,038.3,031.4,24.2,0000.0,0006.06,0003.82,0003.44
2023-07-22 13:07:00,SystemResetWarning,0835.9,5.00,000.00,029.8,028.5,000.0,038.3,031.4,24.0,0000.0,0005.92,0003.79,0003.43
2023-07-22 13:08:00,SystemResetWarning,0835.9,5.00,000.00,029.9,028.5,000.0,038.3,031.4,22.9,0000.0,0005.96,0003.75,0003.41
2023-07-22 13:09:00,SystemResetWarning,0835.9,5.00,000.00,029.9,028.6,000.0,038.4,031.5,21.8,0000.0,0005.75,0003.73,0003.39
2023-07-22 13:10:00,SystemResetWarning,0835.9,5.00,000.00,029.9,028.6,000.0,038.4,031.5,21.5,0000.0,0005.59,0003.72,0003.38
2023-07-22 13:11:00,SystemResetWarning,0835.9,5.00,000.00,029.9,028.6,000.0,038.4,031.5,21.4,0000.0,0005.49,0003.70,0003.36
2023-07-22 13:12:00,SystemResetWarning,0835.9,5.00,000.00,029.9,028.6,000.0,038.4,031.5,22.0,0000.0,0005.53,0003.69,0003.34
2023-07-22 13:13:00,SystemResetWarning,0835.9,5.00,000.00,030.0,028.7,000.0,038.4,031.5,22.9,0000.0,0005.48,0003.65,0003.33
2023-07-22 13:14:00,SystemResetWarning,0836.0,5.00,000.00,030.0,028.7,000.0,038.4,031.6,24.2,0000.0,0005.38,0003.65,0003.31
2023-07-22 13:15:00,SystemResetWarning,0836.0,5.00,000.00,030.0,028.7,000.0,038.4,031.6,24.2,0000.0,0005.57,0003.64,0003.31
2023-07-22 13:16:00,SystemResetWarning,0836.0,5.00,000.00,030.0,028.7,000.0,038.5,031.6,23.9,0000.0,0005.75,0003.66,0003.31
2023-07-22 13:17:00,SystemResetWarning,0836.0,5.01,000.00,030.0,028.8,000.0,038.5,031.6,22.8,0000.0,0006.09,0003.66,0003.31
2023-07-22 13:18:00,SystemResetWarning,0835.9,5.00,000.00,030.0,028.8,000.0,038.5,031.6,24.5,0000.0,0006.27,0003.69,0003.31
2023-07-22 13:19:00,SystemResetWarning,0836.0,5.01,000.00,030.1,028.8,000.0,038.5,031.7,24.9,0000.0,0006.14,0003.69,0003.32
2023-07-22 13:20:00,SystemResetWarning,0836.1,5.00,000.00,030.1,028.8,000.0,038.5,031.7,24.5,0000.0,0006.14,0003.70,0003.34
2023-07-22 13:21:00,SystemResetWarning,0836.1,5.00,000.00,030.1,028.8,000.0,038.5,031.7,23.5,0000.0,0006.27,0003.72,0003.36
2023-07-22 13:22:00,SystemResetWarning,0836.0,4.98,000.00,030.1,027.6,000.0,038.4,031.6,22.8,0000.0,0006.33,0003.70,0003.37
2023-07-22 13:23:00,SystemResetWarning,0836.0,5.00,000.00,030.0,025.7,000.0,038.3,031.3,22.9,0000.0,0006.30,0003.69,0003.38
2023-07-22 13:24:00,SystemResetWarning,0836.0,5.00,000.00,029.9,025.2,000.0,038.2,031.1,23.7,0000.0,0006.22,0003.70,0003.39
2023-07-22 13:25:00,SystemResetWarning,0836.0,5.02,000.00,029.8,025.5,000.0,038.2,030.9,23.9,0000.0,0006.12,0003.69,0003.41
2023-07-22 13:26:00,SystemResetWarning,0836.0,5.01,000.00,029.7,025.9,000.0,038.3,030.9,24.4,0000.0,0005.91,0003.70,0003.42
2023-07-22 13:27:00,SystemResetWarning,0836.0,5.00,000.00,029.7,026.3,000.0,038.3,030.9,23.9,0000.0,0006.01,0003.67,0003.42
2023-07-22 13:28:00,SystemResetWarning,0836.0,5.01,000.00,029.6,026.7,000.0,038.3,031.0,24.9,0000.0,0005.91,0003.68,0003.44
2023-07-22 13:29:00,SystemResetWarning,0836.0,5.00,000.00,029.6,027.0,000.0,038.3,031.0,24.1,0000.0,0005.93,0003.67,0003.46
2023-07-22 13:30:00,SystemResetWarning,0836.0,5.00,000.00,029.6,027.3,000.0,038.2,031.1,23.4,0000.0,0006.50,0003.69,0003.48
2023-07-22 13:31:00,SystemResetWarning,0836.0,5.00,000.00,029.6,027.5,000.0,038.2,031.1,23.9,0000.0,0007.09,0003.70,0003.48
2023-07-22 13:32:00,SystemResetWarning,0836.0,5.00,000.00,029.6,027.7,000.0,038.2,031.1,23.2,0000.0,0007.02,0003.69,0003.48
2023-07-22 13:33:00,SystemResetWarning,0836.0,5.00,000.00,029.7,027.9,000.0,038.2,031.2,24.4,0000.0,0007.34,0003.72,0003.50
2023-07-22 13:34:00,SystemResetWarning,0836.0,5.00,000.00,029.7,028.0,000.0,038.2,031.2,24.8,0000.0,0007.45,0003.75,0003.51
2023-07-22 13:35:00,SystemResetWarning,0836.0,5.00,000.00,029.7,028.1,000.0,038.2,031.2,24.8,0000.0,0007.54,0003.77,0003.53
2023-07-22 13:36:00,SystemResetWarning,0836.0,4.99,000.00,029.7,028.2,000.0,038.2,031.3,25.0,0000.0,0007.55,0003.77,0003.53
2023-07-22 13:37:00,SystemResetWarning,0836.0,5.00,000.00,029.7,028.3,000.0,038.2,031.3,24.5,0000.0,0007.51,0003.75,0003.53
2023-07-22 13:38:00,SystemResetWarning,0836.0,5.00,000.00,029.7,028.4,000.0,038.3,031.3,24.4,0000.0,0007.37,0003.76,0003.54
2023-07-22 13:39:00,SystemResetWarning,0836.0,5.00,000.00,029.8,028.4,000.0,038.3,031.4,24.1,0000.0,0007.33,0003.78,0003.55
2023-07-22 13:40:00,SystemResetWarning,0836.0,5.00,000.00,029.8,028.5,000.0,038.3,031.4,23.8,0000.0,0007.10,0003.80,0003.55
2023-07-22 13:41:00,SystemResetWarning,0835.9,5.00,000.00,029.8,028.5,000.0,038.3,031.4,23.7,0000.0,0006.53,0003.79,0003.56
2023-07-22 13:42:00,SystemResetWarning,0836.0,5.00,000.00,029.8,028.6,000.0,038.3,031.4,24.5,0000.0,0005.99,0003.80,0003.58
2023-07-22 13:43:00,SystemResetWarning,0836.0,5.00,000.00,029.9,028.6,000.0,038.3,031.5,26.2,0000.0,0006.04,0003.84,0003.60
2023-07-22 13:44:00,SystemResetWarning,0836.1,5.00,000.00,029.9,028.7,000.0,038.3,031.5,25.6,0000.0,0005.71,0003.87,0003.63
2023-07-22 13:45:00,SystemResetWarning,0836.1,5.00,000.00,029.9,028.7,000.0,038.4,031.5,25.2,0000.0,0005.68,0003.92,0003.68
2023-07-22 13:46:00,SystemResetWarning,0836.1,5.00,000.00,029.9,028.7,000.0,038.4,031.6,25.0,0000.0,0005.67,0003.97,0003.72
2023-07-22 13:47:00,SystemResetWarning,0836.1,5.00,000.00,030.0,028.5,000.0,038.4,031.6,24.4,0000.0,0005.84,0004.00,0003.75
2023-07-22 13:48:00,SystemResetWarning,0836.1,4.99,000.00,029.9,026.9,000.0,038.2,031.3,25.2,0000.0,0006.10,0004.09,0003.79
2023-07-22 13:49:00,SystemResetWarning,0836.1,5.00,000.00,029.8,025.6,000.0,038.1,031.1,26.3,0000.0,0006.28,0004.16,0003.82
2023-07-22 13:50:00,SystemResetWarning,0836.1,5.01,000.00,029.8,025.5,000.0,038.1,031.0,26.0,0000.0,0006.46,0004.21,0003.86
2023-07-22 13:51:00,SystemResetWarning,0836.0,5.01,000.00,029.6,025.8,000.0,038.1,030.8,25.7,0000.0,0006.55,0004.25,0003.90
2023-07-22 13:52:00,SystemResetWarning,0836.1,4.99,000.00,029.6,026.2,000.0,038.1,030.9,25.4,0000.0,0006.75,0004.29,0003.94
2023-07-22 13:53:00,SystemResetWarning,0836.1,5.00,000.00,029.6,026.6,000.0,038.1,030.9,26.4,0000.0,0007.01,0004.35,0003.97
2023-07-22 13:54:00,SystemResetWarning,0836.1,5.01,000.00,029.6,027.0,000.0,038.1,031.0,27.4,0000.0,0007.01,0004.36,0003.99
2023-07-22 13:55:00,SystemResetWarning,0836.1,5.01,000.00,029.6,027.3,000.0,038.1,031.0,28.8,0000.0,0007.09,0004.37,0004.01
2023-07-22 13:56:00,SystemResetWarning,0836.1,5.00,000.00,029.6,027.5,000.0,038.1,031.1,30.2,0000.0,0007.25,0004.35,0004.00
2023-07-22 13:57:00,SystemResetWarning,0836.1,4.99,000.00,029.6,027.7,000.0,038.1,031.1,30.4,0000.0,0007.69,0004.32,0003.98
2023-07-22 13:58:00,SystemResetWarning,0836.1,5.00,000.00,029.6,027.9,000.0,038.1,031.2,31.4,0000.0,0007.83,0004.33,0003.99
2023-07-22 13:59:00,SystemResetWarning,0836.1,5.00,000.00,029.6,028.0,000.0,038.1,031.2,30.5,0000.0,0008.08,0004.31,0004.00
